| time (UTC) | temp C | wind direction | speed KPH | gust KPH | rain 1hr cm | rain 24hr cm | rain mn cm | humidity % | barometer mb |
| 20260506203032 | 16 | 157 | 0.0 | 0.0 | 0.00 | 0.00 | 0.00 | 77 | 1013.9 |
| 20260506201519 | 16 | 157 | 0.0 | 0.0 | 0.00 | 0.00 | 0.00 | 76 | 1013.6 |
| 20260506200014 | 16 | 157 | 0.0 | 0.0 | 0.00 | 0.00 | 0.00 | 76 | 1013.4 |
| 20260506194514 | 16 | 157 | 0.0 | 3.2 | 0.00 | 0.00 | 0.00 | 75 | 1013.1 |
| 20260506193017 | 16 | 145 | 0.0 | 3.2 | 0.00 | 0.00 | 0.00 | 75 | 1013.1 |
| 20260506191512 | 16 | 192 | 1.6 | 4.8 | 0.00 | 0.00 | 0.00 | 74 | 1012.9 |
| 20260506190011 | 17 | 259 | 0.0 | 3.2 | 0.00 | 0.00 | 0.00 | 73 | 1012.7 |
| 20260506184511 | 17 | 176 | 4.8 | 8.0 | 0.00 | 0.00 | 0.00 | 72 | 1012.5 |
| 20260506183010 | 18 | 162 | 1.6 | 9.7 | 0.00 | 0.00 | 0.00 | 72 | 1012.4 |
| 20260506181509 | 18 | 156 | 4.8 | 11.3 | 0.00 | 0.00 | 0.00 | 73 | 1012.3 |
| 20260506180011 | 18 | 114 | 0.0 | 8.0 | 0.00 | 0.00 | 0.00 | 73 | 1012.3 |
| 20260506174508 | 18 | 177 | 3.2 | 6.4 | 0.00 | 0.00 | 0.00 | 72 | 1012.2 |
| 20260506173007 | 19 | 155 | 4.8 | 8.0 | 0.00 | 0.00 | 0.00 | 71 | 1012.1 |
| 20260506171510 | 19 | 229 | 1.6 | 9.7 | 0.00 | 0.00 | 0.00 | 69 | 1012.0 |
| 20260506170008 | 20 | 150 | 3.2 | 9.7 | 0.00 | 0.00 | 0.00 | 67 | 1011.9 |
| 20260506164505 | 20 | 136 | 6.4 | 11.3 | 0.00 | 0.00 | 0.00 | 65 | 1011.8 |
| 20260506163004 | 20 | 219 | 4.8 | 11.3 | 0.00 | 0.00 | 0.00 | 63 | 1011.9 |
| 20260506161502 | 20 | 170 | 6.4 | 12.9 | 0.00 | 0.00 | 0.00 | 61 | 1011.8 |
| 20260506160001 | 20 | 141 | 8.0 | 16.1 | 0.00 | 0.00 | 0.00 | 59 | 1011.9 |
| 20260506154502 | 20 | 138 | 4.8 | 16.1 | 0.00 | 0.00 | 0.00 | 56 | 1011.8 |
| 20260506153000 | 20 | 230 | 4.8 | 12.9 | 0.00 | 0.00 | 0.00 | 55 | 1011.9 |
| 20260506151610 | 20 | 165 | 8.0 | 14.5 | 0.00 | 0.00 | 0.00 | 57 | 1012.0 |
| 20260506150201 | 20 | 142 | 4.8 | 17.7 | 0.00 | 0.00 | 0.00 | 59 | 1012.1 |
| 20260506144615 | 20 | 148 | 8.0 | 17.7 | 0.00 | 0.00 | 0.00 | 58 | 1012.1 |
| 20260506143104 | 19 | 162 | 9.7 | 19.3 | 0.00 | 0.00 | 0.00 | 60 | 1012.2 |
| 20260506141559 | 20 | 211 | 9.7 | 19.3 | 0.00 | 0.00 | 0.00 | 57 | 1012.3 |
| 20260506140108 | 20 | 139 | 8.0 | 16.1 | 0.00 | 0.00 | 0.00 | 56 | 1012.5 |
| 20260506134557 | 20 | 255 | 6.4 | 14.5 | 0.00 | 0.00 | 0.00 | 54 | 1012.6 |
| 20260506133056 | 20 | 193 | 8.0 | 16.1 | 0.00 | 0.00 | 0.00 | 52 | 1012.6 |
| 20260506131557 | 20 | 218 | 4.8 | 17.7 | 0.00 | 0.00 | 0.00 | 53 | 1012.7 |
| 20260506130118 | 20 | 159 | 9.7 | 17.7 | 0.00 | 0.00 | 0.00 | 51 | 1012.8 |
| 20260506124553 | 21 | 157 | 6.4 | 16.1 | 0.00 | 0.00 | 0.00 | 52 | 1012.8 |
| 20260506123052 | 21 | 146 | 4.8 | 16.1 | 0.00 | 0.00 | 0.00 | 53 | 1012.9 |
| 20260506121552 | 20 | 168 | 4.8 | 12.9 | 0.00 | 0.00 | 0.00 | 53 | 1012.9 |
| 20260506120050 | 20 | 232 | 9.7 | 17.7 | 0.00 | 0.00 | 0.00 | 53 | 1012.9 |
| 20260506114549 | 19 | 169 | 11.3 | 19.3 | 0.00 | 0.00 | 0.00 | 53 | 1012.8 |
| 20260506113047 | 19 | 155 | 12.9 | 19.3 | 0.00 | 0.00 | 0.00 | 54 | 1012.9 |
| 20260506111546 | 19 | 203 | 9.7 | 17.7 | 0.00 | 0.00 | 0.00 | 54 | 1012.9 |
| 20260506110050 | 20 | 179 | 11.3 | 17.7 | 0.00 | 0.00 | 0.00 | 54 | 1013.1 |
| 20260506104543 | 20 | 184 | 6.4 | 14.5 | 0.00 | 0.00 | 0.00 | 55 | 1013.1 |
| 20260506103046 | 20 | 181 | 11.3 | 19.3 | 0.00 | 0.00 | 0.00 | 56 | 1013.1 |
| 20260506101551 | 20 | 187 | 4.8 | 11.3 | 0.00 | 0.00 | 0.00 | 54 | 1013.3 |
| 20260506100035 | 19 | 223 | 4.8 | 12.9 | 0.00 | 0.00 | 0.00 | 58 | 1013.3 |
| 20260506094536 | 18 | 146 | 11.3 | 16.1 | 0.00 | 0.00 | 0.00 | 58 | 1013.4 |
| 20260506093032 | 18 | 152 | 6.4 | 19.3 | 0.00 | 0.00 | 0.00 | 59 | 1013.5 |
| 20260506091530 | 18 | 162 | 6.4 | 12.9 | 0.00 | 0.00 | 0.00 | 57 | 1013.3 |
| 20260506090027 | 18 | 150 | 6.4 | 12.9 | 0.00 | 0.00 | 0.00 | 58 | 1013.3 |
| 20260506084529 | 18 | 262 | 3.2 | 8.0 | 0.00 | 0.00 | 0.00 | 59 | 1013.4 |
| 20260506083024 | 18 | 290 | 1.6 | 9.7 | 0.00 | 0.00 | 0.00 | 59 | 1013.3 |
| 20260506081521 | 17 | 288 | 3.2 | 11.3 | 0.00 | 0.00 | 0.00 | 60 | 1013.2 |
| 20260506073013 | 16 | 255 | 3.2 | 11.3 | 0.00 | 0.00 | 0.00 | 65 | 1013.1 |
| 20260506071514 | 15 | 289 | 4.8 | 12.9 | 0.00 | 0.00 | 0.00 | 70 | 1012.8 |
| 20260506061502 | 13 | 317 | 4.8 | 12.9 | 0.00 | 0.00 | 0.00 | 76 | 1012.5 |
| 20260506044601 | 12 | 286 | 1.6 | 6.4 | 0.00 | 0.00 | 0.00 | 82 | 1011.9 |
| 20260506043054 | 12 | 262 | 0.0 | 9.7 | 0.00 | 0.00 | 0.00 | 82 | 1011.9 |
| 20260506041604 | 12 | 275 | 3.2 | 8.0 | 0.00 | 0.00 | 0.00 | 82 | 1011.8 |
| 20260506040052 | 12 | 271 | 0.0 | 8.0 | 0.00 | 0.00 | 0.00 | 81 | 1011.8 |
| 20260506034554 | 12 | 302 | 0.0 | 8.0 | 0.00 | 0.00 | 0.00 | 80 | 1011.7 |
| 20260506033049 | 12 | 281 | 1.6 | 4.8 | 0.00 | 0.00 | 0.00 | 80 | 1011.7 |
| 20260506031552 | 12 | 301 | 1.6 | 6.4 | 0.00 | 0.00 | 0.00 | 81 | 1011.7 |
| 20260506030048 | 12 | 304 | 0.0 | 3.2 | 0.00 | 0.00 | 0.00 | 81 | 1011.7 |
| 20260506024546 | 12 | 311 | 0.0 | 4.8 | 0.00 | 0.00 | 0.00 | 82 | 1011.7 |
| 20260506023045 | 12 | 233 | 0.0 | 3.2 | 0.00 | 0.00 | 0.00 | 81 | 1011.8 |
| 20260506021545 | 12 | 276 | 0.0 | 3.2 | 0.00 | 0.00 | 0.00 | 82 | 1011.6 |
| 20260506020042 | 12 | 308 | 0.0 | 0.0 | 0.00 | 0.00 | 0.00 | 81 | 1011.4 |
| 20260506014549 | 13 | 308 | 0.0 | 4.8 | 0.00 | 0.00 | 0.00 | 81 | 1011.5 |
| 20260506011638 | 13 | 300 | 3.2 | 9.7 | 0.00 | 0.00 | 0.00 | 81 | 1011.5 |
| 20260506010037 | 13 | 293 | 1.6 | 8.0 | 0.00 | 0.00 | 0.00 | 80 | 1011.6 |
| 20260506004541 | 13 | 257 | 0.0 | 6.4 | 0.00 | 0.00 | 0.00 | 80 | 1011.5 |
| 20260506003034 | 13 | 302 | 0.0 | 8.0 | 0.00 | 0.00 | 0.00 | 79 | 1011.7 |
| 20260506001540 | 13 | 243 | 0.0 | 4.8 | 0.00 | 0.00 | 0.00 | 79 | 1011.8 |
| 20260506000039 | 14 | 281 | 1.6 | 6.4 | 0.00 | 0.00 | 0.00 | 77 | 1011.7 |
| 20260505234527 | 15 | 304 | 4.8 | 9.7 | 0.00 | 0.00 | 0.00 | 76 | 1011.8 |
| 20260505233025 | 15 | 299 | 4.8 | 11.3 | 0.00 | 0.00 | 0.00 | 76 | 1011.7 |
| 20260505231525 | 15 | 34 | 3.2 | 9.7 | 0.00 | 0.00 | 0.00 | 76 | 1011.5 |
| 20260505230022 | 15 | 283 | 1.6 | 11.3 | 0.00 | 0.00 | 0.00 | 76 | 1011.5 |
| 20260505224532 | 15 | 311 | 3.2 | 11.3 | 0.00 | 0.00 | 0.00 | 75 | 1011.6 |
| 20260505223018 | 15 | 311 | 4.8 | 14.5 | 0.00 | 0.00 | 0.00 | 75 | 1011.8 |
| 20260505221515 | 15 | 304 | 4.8 | 11.3 | 0.00 | 0.00 | 0.00 | 73 | 1011.9 |
| 20260505220025 | 15 | 308 | 4.8 | 11.3 | 0.00 | 0.00 | 0.00 | 73 | 1012.2 |
| 20260505214516 | 16 | 301 | 6.4 | 14.5 | 0.00 | 0.00 | 0.00 | 71 | 1012.2 |
| 20260505213010 | 16 | 298 | 3.2 | 8.0 | 0.00 | 0.00 | 0.00 | 69 | 1012.2 |
| 20260505211510 | 16 | 285 | 1.6 | 8.0 | 0.00 | 0.00 | 0.00 | 69 | 1012.0 |
| 20260505210009 | 16 | 299 | 0.0 | 6.4 | 0.00 | 0.00 | 0.00 | 69 | 1011.7 |
| 20260505204515 | 16 | 313 | 3.2 | 6.4 | 0.00 | 0.20 | 0.00 | 70 | 1011.7 |